Гурджаани

Грузия     41°44′45″N   45°47′45″E
темп.,
°C
ветер,
м/с
пор.,
м/с
влажн.,
%
обл.,
%
осадки,
мм/ч
давл.,
гПа
погр.,
м
28 февраля, вс
вс2801:00+4сз12700 0.0 101922
04:00+3з22680 0.0 101827
07:00+3з22680 0.0 101824
10:00+8зсз12520 0.0 1016254
13:00+12всв02410 0.0 10151260
16:00+13ссз243837 0.0 10131948
19:00+8сз126025 0.0 101568
22:00+6зсз126432 0.0 101749
1 марта, пн
пн101:00+5сз246874 0.0 1017117
04:00+6зсз136887 0.2 1018164
07:00+4зюз1273100 0.1 102096
10:00+6ссз1358100 0.1 1021557
13:00+10с1632100 0.0 10221958
16:00+10ссз242794 0.0 10222171
19:00+6с01463 0.0 102429
22:00+4ссз135752 0.0 1027104
2 марта, вт
вт201:00+3с3567100 0.0 1028186
04:00+3с2384100 0.1 1028347
07:00+2с2294100 0.3 1029178
10:00+2всв1294100 1.3 1029192
13:00+4св1184100 0.6 1027368
16:00+6вюв116694 0.8 1025836
19:00+4ююв007796 0.1 102659
22:00+2з118487 0.3 102622
3 марта, ср
ср301:00+1зсз118746 0.1 102621
04:00+1зсз227424 0.1 102428
07:000зсз22730 0.0 102335
10:00+4сз365123 0.0 1020868
13:00+8зсз7123838 0.0 10181939
16:00+7зсз9163819 0.0 10161979
19:00+4зсз514540 0.0 10191084
22:00+2з411580 0.0 1022468
4 марта, чт
чт401:00+1зсз33670 0.0 102381
04:000з127125 0.0 102551
07:000з12724 0.0 102633
10:00+4с225219 0.0 1027625
13:00+6всв32410 0.0 10261231
16:00+7в44490 0.0 10251402
19:00+4всв126226 0.0 102530
22:00+3всв126637 0.0 102826